GW2092 Weather Reports


time (UTC)temp
F
wind
direction
speed
knots
gust
knots
rain 1hr
in
rain 24hr
in
rain mn
in
humidity
%
barometer
mb
20260902074545 80 0 0.0 2.6 0.00 0.00 0.00 68 1017.3
20260902073048 80 229 0.0 2.6 0.00 0.00 0.00 68 1017.3
20260902071550 80 0 0.0 1.7 0.00 0.00 0.00 67 1017.3
20260902070047 80 0 0.0 1.7 0.00 0.00 0.00 67 1017.4
20260902064545 80 0 0.0 1.7 0.00 0.00 0.00 66 1017.3
20260902063052 80 0 0.0 0.9 0.00 0.00 0.00 66 1017.3
20260902061559 80 158 0.0 0.9 0.00 0.00 0.00 66 1017.3
20260902060054 80 210 0.0 1.7 0.00 0.00 0.00 66 1017.2
20260902054553 81 0 0.0 0.9 0.00 0.00 0.00 65 1016.9
20260902053047 81 129 0.0 1.7 0.00 0.00 0.00 64 1017.0
20260902051544 81 155 0.0 1.7 0.00 0.00 0.00 63 1016.9
20260902050046 82 0 0.0 0.9 0.00 0.00 0.00 63 1016.9
20260902044550 82 0 0.0 1.7 0.00 0.00 0.00 62 1017.0
20260902043051 82 0 0.0 0.9 0.00 0.00 0.00 62 1017.0
20260902041607 82 0 0.0 0.0 0.00 0.00 0.00 61 1017.0
20260902040054 82 0 0.0 0.9 0.00 0.00 0.00 60 1017.1
20260902034550 82 0 0.0 0.9 0.00 0.00 0.00 59 1017.0
20260902033044 83 0 0.0 0.9 0.00 0.00 0.00 59 1017.0
20260902031614 83 0 0.0 0.9 0.00 0.00 0.00 59 1016.8
20260902030056 82 0 0.0 0.9 0.00 0.00 0.00 59 1016.5
20260902024553 82 0 0.0 0.0 0.00 0.00 0.00 60 1016.3
20260902023102 82 0 0.0 0.0 0.00 0.00 0.00 61 1016.0
20260902021549 81 0 0.0 0.0 0.00 0.00 0.00 61 1015.8
20260902020047 82 0 0.0 0.0 0.00 0.00 0.00 60 1015.3
20260902014544 83 0 0.0 0.0 0.00 0.00 0.00 58 1015.1
20260902013043 84 0 0.0 0.0 0.00 0.00 0.00 56 1015.1
20260902011550 86 0 0.0 0.0 0.00 0.00 0.00 54 1015.1
20260902010045 87 0 0.0 0.0 0.00 0.00 0.00 52 1015.2
20260902004555 90 0 0.0 0.0 0.00 0.00 0.00 49 1015.1
20260902003052 91 0 0.0 0.9 0.00 0.00 0.00 47 1015.3
20260902001556 92 0 0.0 0.0 0.00 0.00 0.00 45 1015.4
20260902000043 94 0 0.0 0.9 0.00 0.00 0.00 44 1015.5
20260901234544 94 0 0.0 1.7 0.00 0.00 0.00 42 1015.5
20260901233059 95 0 0.0 2.6 0.00 0.00 0.00 41 1015.7
20260901231544 97 0 0.0 2.6 0.00 0.00 0.00 39 1015.7
20260901230125 98 0 0.0 0.9 0.00 0.00 0.00 37 1015.8
20260901224552 100 139 0.9 2.6 0.00 0.00 0.00 36 1015.7
20260901223054 101 0 0.0 3.5 0.00 0.00 0.00 36 1015.7
20260901221554 101 0 0.0 2.6 0.00 0.00 0.00 35 1015.6
20260901220047 99 146 0.0 4.3 0.00 0.00 0.00 37 1015.8
20260901214550 103 245 0.9 4.3 0.00 0.00 0.00 34 1015.8
20260901213110 103 0 0.0 3.5 0.00 0.00 0.00 32 1015.8
20260901211550 103 153 0.9 5.2 0.00 0.00 0.00 33 1015.8
20260901210045 103 0 0.0 5.2 0.00 0.00 0.00 34 1016.1
20260901204552 101 0 0.0 3.5 0.00 0.00 0.00 36 1016.2
20260901203115 100 321 0.0 0.9 0.00 0.00 0.00 38 1016.5
20260901201550 101 0 0.0 1.7 0.00 0.00 0.00 36 1016.7
20260901200053 101 0 0.0 0.0 0.00 0.00 0.00 37 1016.8
20260901194602 103 0 0.9 5.2 0.00 0.00 0.00 35 1017.1
20260901193044 102 0 0.9 3.5 0.00 0.00 0.00 37 1017.2
20260901191556 102 68 0.0 1.7 0.00 0.00 0.00 37 1017.4
20260901190049 99 120 0.0 2.6 0.00 0.00 0.00 40 1017.6
20260901184544 100 0 0.0 1.7 0.00 0.00 0.00 37 1017.6
20260901183052 100 0 0.0 4.3 0.00 0.00 0.00 39 1017.8
20260901181551 99 252 0.0 1.7 0.00 0.00 0.00 39 1018.1
20260901180050 98 0 0.0 0.9 0.00 0.00 0.00 41 1018.3
20260901174547 99 207 0.0 1.7 0.00 0.00 0.00 40 1018.5
20260901173054 100 158 0.9 6.1 0.00 0.00 0.00 40 1018.7
20260901171551 99 148 0.0 3.5 0.00 0.00 0.00 43 1018.8
20260901170047 98 222 0.0 4.3 0.00 0.00 0.00 44 1018.9
20260901164557 98 0 0.0 5.2 0.00 0.00 0.00 45 1019.1
20260901163050 97 182 0.0 2.6 0.00 0.00 0.00 47 1019.4
20260901161550 95 160 0.0 2.6 0.00 0.00 0.00 49 1019.4
20260901160058 94 199 0.9 4.3 0.00 0.00 0.00 51 1019.5
20260901154547 93 0 0.0 3.5 0.00 0.00 0.00 52 1019.5
20260901153049 93 73 0.0 4.3 0.00 0.00 0.00 53 1019.6
20260901151554 91 195 1.7 6.1 0.00 0.00 0.00 54 1019.8
20260901150049 91 134 0.0 4.3 0.00 0.00 0.00 55 1019.8
20260901144546 90 214 0.0 5.2 0.00 0.00 0.00 56 1019.7
20260901143055 88 122 0.9 6.1 0.00 0.00 0.00 58 1019.8
20260901141553 86 161 0.0 2.6 0.00 0.00 0.00 60 1019.9
20260901140048 84 214 0.9 5.2 0.00 0.00 0.00 63 1019.8
20260901134545 82 191 0.0 2.6 0.00 0.00 0.00 66 1019.9
20260901133043 80 0 0.0 1.7 0.00 0.00 0.00 69 1019.8
20260901131547 78 0 0.0 0.9 0.00 0.00 0.00 71 1019.5
20260901130047 76 0 0.0 0.0 0.00 0.00 0.00 74 1019.4
20260901124555 74 0 0.0 0.0 0.00 0.00 0.00 75 1019.1
20260901123052 74 0 0.0 0.0 0.00 0.00 0.00 76 1019.1
20260901121547 73 0 0.0 0.0 0.00 0.00 0.00 77 1018.9
20260901120056 73 0 0.0 0.0 0.00 0.00 0.00 76 1018.6
20260901114553 74 0 0.0 0.0 0.00 0.00 0.00 74 1018.5
20260901113050 74 0 0.0 0.0 0.00 0.00 0.00 75 1018.5
20260901111556 74 0 0.0 0.0 0.00 0.00 0.00 74 1018.5
20260901110046 74 0 0.0 0.0 0.00 0.00 0.00 73 1018.4
20260901104551 75 0 0.0 0.0 0.00 0.00 0.00 72 1018.4
20260901103049 76 0 0.0 0.0 0.00 0.00 0.00 71 1018.2
20260901101606 76 0 0.0 0.0 0.00 0.00 0.00 70 1018.2
20260901100053 76 0 0.0 0.0 0.00 0.00 0.00 70 1018.2
20260901094549 76 0 0.0 0.0 0.00 0.00 0.00 69 1018.2
20260901093048 76 0 0.0 0.0 0.00 0.00 0.00 69 1018.1
20260901091610 76 0 0.0 0.0 0.00 0.00 0.00 69 1018.0
20260901090055 76 0 0.0 0.0 0.00 0.00 0.00 69 1018.0
20260901084548 76 0 0.0 0.0 0.00 0.00 0.00 68 1017.9
20260901083057 76 0 0.0 0.0 0.00 0.00 0.00 68 1017.8
20260901081555 76 0 0.0 0.0 0.00 0.00 0.00 68 1017.7
20260901080100 76 0 0.0 0.0 0.00 0.00 0.00 67 1017.7